Location: The Saddle
(36.8333°N, 80.3417°W)
Time: 16:58:27
(UTC-05:00)

A-11 Canister half - Pass Details

Date: 15 December 2023
Orbit: 1512 x 1687 km, 47.2° (Epoch: 29 February)

Event Time Altitude Azimuth Distance (km) Brightness Sun altitude
Rises 03:11:39 0° 301° (WNW) 4,789 - -50.1°
Reaches altitude 10° 03:14:44 10° 303° (WNW) 3,826 - -49.5°
Maximum altitude 03:24:34 77° 30° (NNE) 1,688 - -47.5°
Exits shadow 03:27:54 48° 104° (ESE) 2,067 9.7 -46.9°
Drops below altitude 10° 03:34:42 10° 116° (ESE) 3,933 11.6 -45.5°
Sets 03:37:54 0° 118° (ESE) 4,929 12.2 -44.9°
